LATEST WEATHER OBSERVATIONS RECORDED AT FUA'AMOTU AIRPORT
DATE TIME CLOUD WIND KT TEMP
(C)
DewPoint
(C)
RH(%) WEATHER MSL PRESS.
(MB)
25.01.2018 12:00AM FINE  CALM 0 25.6 23.7 89.27272 NIL 1010
24.01.2018 11:00PM FINE  CALM 0 25.7 24 90.35946 NIL 1010
24.01.2018 10:00PM CLOUDY CALM 0 26.1 24.8 92.57346 NIL 1009
24.01.2018 09:00PM PARTLY CLOUDY CALM 0 26.7 24.3 86.72645 NIL 1009
24.01.2018 08:00PM FINE  CALM 0 27 25 88.84961 NIL 1009
24.01.2018 07:00PM PARTLY CLOUDY CALM 0 28.3 24 77.57635 NIL 1009
24.01.2018 06:00PM FINE  CALM 0 30 23.8 69.48567 NIL 1008
24.01.2018 05:00PM FINE  E 4 30 23.7 69.06908 NIL 1008
24.01.2018 04:00PM PARTLY CLOUDY SE 3 30.5 23.5 66.31671 NIL 1008
24.01.2018 03:00PM PARTLY CLOUDY SE 8 30.5 23.3 65.52178 NIL 1008
24.01.2018 02:00PM PARTLY CLOUDY SE 8 30.2 23.5 67.46465 NIL 1008
24.01.2018 01:00PM PARTLY CLOUDY SE 7 29.6 23.1 68.16326 NIL 1008
24.01.2018 12:00PM PARTLY CLOUDY SE 6 29.9 23 66.59443 NIL 1009
24.01.2018 11:00AM PARTLY CLOUDY SE 5 29.2 23.1 69.75237 NIL 1010
24.01.2018 10:00AM PARTLY CLOUDY SE 5 28.2 22.7 72.14355 NIL 1010
24.01.2018 09:00AM FINE  SE 4 27.4 22.9 76.51007 NIL 1010
24.01.2018 08:00AM FINE  CALM 0 25.5 22.7 84.54111 NIL 1010
24.01.2018 07:00AM FINE  CALM 0 24.5 22.9 90.82335 NIL 1009
24.01.2018 06:00AM FINE  CALM 0 24.5 22.6 89.18714 NIL 1008.6
24.01.2018 05:00AM FINE  CALM 0 24.7 22.8 89.20278 NIL 1008
24.01.2018 04:00AM FINE  CALM 0 24.9 22.7 87.61231 NIL 1008
24.01.2018 03:00AM FINE  CALM 0 25 22.8 87.62118 NIL 1008.1
24.01.2018 02:00AM FINE  CALM 0 25.1 22.9 87.63004 NIL 1008.8
24.01.2018 01:00AM FINE  SE 5 25.4 22.8 85.56136 NIL 1009.4